This demonstration page uses our WeatherBlox Daily Observations layout. Learn more.

Left ArrowRight Arrow

Hourly Observations for September 11, 2015

Temp ( °F °C ) Dew Point ( °F °C ) Humidity (%) Winds ( mph kmh ) Pressure ( in mb ) Visibility ( mi km ) Precip ( " mm )
12:53 am 00:53 Clear 59 15 57 13.9 93 93 Calm 29.88 1012 10 16.0934 0 0
1:53 am 01:53 Clear 58 14.4 57 13.9 97 97 Calm 29.89 1012 10 16.0934 0 0
2:53 am 02:53 Clear 57 13.9 55 12.8 93 93 Calm 29.89 1012 10 16.0934 0 0
3:53 am 03:53 Clear 56 13.3 55 12.8 97 97 Calm 29.89 1012 9 14.48406 0 0
4:53 am 04:53 Clear 56 13.3 55 12.8 97 97 Calm 29.88 1012 9 14.48406 0 0
5:53 am 05:53 Clear 56 13.3 55 12.8 97 97 Calm 29.89 1012 10 16.0934 0 0
6:53 am 06:53 Clear 55 12.8 54 12.2 96 96 Calm 29.89 1012 7 11.26538 0 0
7:53 am 07:53 Sunny with Mist and Fog 57 13.9 56 13.3 96 96 Calm 29.91 1013 6 9.65604 0 0
8:53 am 08:53 Sunny 64 17.8 58 14.4 81 81 Calm 29.91 1013 10 16.0934 0 0
9:53 am 09:53 Sunny 69 20.6 58 14.4 68 68 Calm 29.92 1013 10 16.0934 0 0
10:53 am 10:53 Sunny 75 23.9 56 13.3 52 52 Calm 29.91 1013 10 16.0934 0 0
11:53 am 11:53 Sunny 78 25.6 56 13.3 47 47 N 3 6 29.9 1012 9 14.48406 0 0
12:53 pm 12:53 Sunny 80 26.7 53 11.7 39 39 Calm 29.88 1012 10 16.0934 0 0
1:53 pm 13:53 Mostly Cloudy 75 23.9 61 16.1 62 62 NW 15 24 29.88 1012 10 16.0934 0 0
2:53 pm 14:53 Cloudy 72 22.2 59 15 64 64 NNW 14 22 29.88 1012 10 16.0934 0 0.0254
3:53 pm 15:53 Cloudy with Light Rain 68 20 60 15.6 76 76 N 7 11 29.89 1012 10 16.0934 0 0.0254
4:53 pm 16:53 Cloudy with Light Rain 65 18.3 61 16.1 87 87 N 6 9 29.87 1012 10 16.0934 0 0.0254
5:53 pm 17:53 Cloudy with Light Rain 65 18.3 62 16.7 90 90 NNW 3 6 29.87 1012 10 16.0934 0.01 0.254
6:38 pm 18:38 Cloudy 64 17.8 61 16.1 90 90 N 6 9 29.88 1012 10 16.0934 0 0.0254
6:53 pm 18:53 Cloudy 64 17.8 61 16.1 90 90 NNW 3 6 29.88 1012 10 16.0934 0 0.0254
7:12 pm 19:12 Cloudy with Light Rain 64 17.8 61 16.1 90 90 N 6 9 29.88 1012 6 9.65604 0.01 0.254
7:53 pm 19:53 Cloudy with Light Rain 63 17.2 60 15.6 90 90 Calm 29.88 1012 8 12.87472 0.02 0.508
8:41 pm 20:41 Cloudy with Light Rain 63 17.2 61 16.1 93 93 N 3 6 29.88 1012 7 11.26538 0.08 2.032
8:53 pm 20:53 Cloudy with Light Rain 63 17.2 61 16.1 93 93 N 5 7 29.87 1012 7 11.26538 0.08 2.032
8:58 pm 20:58 Cloudy with Light Rain 63 17.2 61 16.1 93 93 N 5 7 29.88 1012 8 12.87472 0 0.0254
9:53 pm 21:53 Cloudy with Light Rain 61 16.1 59 15 93 93 VRB 6 9 29.89 1012 7 11.26538 0.03 0.762
10:00 pm 22:00 Cloudy with Rain 61 16.1 59 15 93 93 NW 7 11 29.91 1013 5 8.0467 0.02 0.508
10:37 pm 22:37 Cloudy with Rain 60 15.6 59 15 96 96 N 6 9 29.91 1013 6 9.65604 0.15 3.81
10:53 pm 22:53 Cloudy with Light Rain 61 16.1 59 15 93 93 WNW 6 9 29.9 1013 7 11.26538 0.16 4.064
11:49 pm 23:49 Cloudy with Light Rain 61 16 59 15 94 94 WNW 7 11 29.91 1013 8 12.87472 0.03 0.762
11:53 pm 23:53 Cloudy with Light Rain 61 16.1 59 15 93 93 NW 7 11 29.9 1013 9 14.48406 0.03 0.762

Powered by AerisWeather